Погода в Высоком

Россия / Вологодская область     59°37′44″N   39°50′39″E
темп.,
°C
ветер,
м/с
пор.,
м/с
влажн.,
%
обл.,
%
осадки,
мм/ч
давл.,
гПа
погр.,
м
13 мая, чт
чт1300:00+13вюв24773 0.0 102353
03:00+13вюв278850 0.0 1022131
06:00+15вюв268696 0.1 1021167
09:00+17юв397616 0.1 1021412
12:00+19юв486379 0.0 1020946
15:00+22юв475717 0.4 10181746
18:00+22вюв365516 0.0 1016988
21:00+15вюв3989100 1.8 1014205
14 мая, пт
пт1400:00+14вюв239782 7.8 101477
03:00+13ююз41094100 7.9 1015534
06:00+12ю31093100 0.0 1016352
09:00+15ююз4973100 0.0 1017822
12:00+19ююз57513 0.0 10171735
15:00+20ююз464412 0.0 10162143
18:00+18зюз255990 0.0 1016402
21:00+13ююв117946 0.0 101611
15 мая, сб
сб1500:00+12вюв248462 0.0 101586
03:00+13ююв31093100 0.6 1014382
06:00+14в31097100 1.5 1012402
09:00+18юв4880100 1.5 1011624
12:00+22ю596279 0.6 10101322
15:00+21ююв5968100 1.9 1009973
18:00+18юв378983 2.6 1007411
21:00+16ю61388100 3.1 1006624
16 мая, вс
вс1600:00+14ю4129549 0.4 1006372
03:00+13ю4129744 0.4 1006481
06:00+13ююз51194100 0.0 1007616
09:00+13юз489180 0.1 1009663
12:00+16юз4778100 0.1 10101084
15:00+19зюз4667100 1.1 10111362
18:00+16зюз2587100 1.9 1012502
21:00+13юз22965 2.1 101320
17 мая, пн
пн1700:00+11зюз229655 0.0 101418
03:00+10з11960 0.0 101610
06:00+12ююв11914 0.0 101663
09:00+17ююз12735 0.0 1017516
12:00+21ю2351100 0.0 10171655
15:00+21ю2350100 0.0 10161504
18:00+20юв1269100 0.0 101644
21:00+16вюв2583100 0.0 101597